Powrót do katalogu

SWC-1

LostPogodaHEO
NORAD 68540·PAYLOAD·🇸🇦 Saudi Arabia

Wystrzelony Apr 1, 2026 z Cape Canaveral Space Force Station

Loading…

Następne Przeloty (najbliższe 24 godziny)

TLE

NieaktualneSource: Space-Track

Epoka: Apr 17, 2026, 12:14 UTC

1 68540U 26069C   26107.51011483 -.00000351  00000-0  00000-0 0  9995
2 68540  28.3533 357.7706 8357664  80.9928 279.0715  1.01840683   168

Śledź SWC-1 w czasie rzeczywistym z AllMySat

Download on the App Store